,,PA_Meas_PMT16A,,PR_Meas_QMR101_102,,RH_Meas_QMH101,,SR_Meas_QMS101,,TA_Meas_QMH101,,GenWind,,GenWind,
time,status,PA,status,PR,status,RH,status,SR,status,TA,status,DirAvg,status,SpdAvg,
2015-12-28, 15:19:04,VALID,918.057,VALID,0,VALID,102.192,VALID,94.7631,VALID,21.2372,VALID,268,VALID,0,
2015-12-28, 15:20:04,VALID,918.04,VALID,0,VALID,100.782,VALID,96.4822,VALID,21.1023,VALID,268,VALID,0,
2015-12-28, 15:21:04,VALID,918.006,VALID,0.2,VALID,99.6838,VALID,97.3417,VALID,20.9252,VALID,268,VALID,0,
2015-12-28, 15:22:04,VALID,918.008,VALID,0,VALID,100.812,VALID,98.3087,VALID,20.8277,VALID,272,VALID,0,
2015-12-28, 15:23:04,VALID,917.972,VALID,0,VALID,101.391,VALID,99.4905,VALID,20.6327,VALID,359,VALID,0,
2015-12-28, 15:24:04,VALID,917.992,VALID,0,VALID,102.726,VALID,101.102,VALID,20.5562,VALID,348,VALID,0,
2015-12-28, 15:25:04,VALID,917.968,VALID,0.2,VALID,103.678,VALID,101.962,VALID,20.5757,VALID,348,VALID,0,
2015-12-28, 15:26:04,VALID,917.958,VALID,0.2,VALID,104,VALID,102.821,VALID,20.6147,VALID,348,VALID,0,
2015-12-28, 15:27:04,VALID,917.945,VALID,0,VALID,104,VALID,102.606,VALID,20.5367,VALID,348,VALID,0,
2015-12-28, 15:28:04,VALID,917.931,VALID,0.2,VALID,103.831,VALID,103.144,VALID,20.5367,VALID,348,VALID,0,
2015-12-28, 15:29:04,VALID,917.928,VALID,0.2,VALID,103.739,VALID,105.185,VALID,20.5952,VALID,348,VALID,0,
2015-12-28, 15:30:04,VALID,917.895,VALID,0,VALID,103.717,VALID,110.664,VALID,20.6733,VALID,348,VALID,0,
2015-12-28, 15:31:04,VALID,917.918,VALID,0,VALID,103.457,VALID,116.896,VALID,20.8293,VALID,348,VALID,0,
2015-12-28, 15:32:04,VALID,917.893,VALID,0,VALID,103.961,VALID,121.516,VALID,21.1023,VALID,348,VALID,0,
2015-12-28, 15:33:04,VALID,917.835,VALID,0,VALID,104,VALID,129.037,VALID,21.2779,VALID,348,VALID,0,
2015-12-28, 15:34:04,VALID,917.838,VALID,0,VALID,104,VALID,135.161,VALID,21.4339,VALID,348,VALID,0,
2015-12-28, 15:35:04,VALID,917.816,VALID,0.2,VALID,104,VALID,138.492,VALID,21.4713,VALID,348,VALID,0,
2015-12-28, 15:36:04,VALID,917.818,VALID,0,VALID,104,VALID,140.103,VALID,21.5509,VALID,348,VALID,0,
2015-12-28, 15:37:04,VALID,917.814,VALID,0,VALID,104,VALID,143.649,VALID,21.6485,VALID,348,VALID,0,
2015-12-28, 15:38:04,VALID,917.839,VALID,0,VALID,104,VALID,159.55,VALID,21.8436,VALID,348,VALID,0,
2015-12-28, 15:39:04,VALID,917.834,VALID,0,VALID,104,VALID,317.918,VALID,21.9785,VALID,11,VALID,0,
2015-12-28, 15:40:04,VALID,917.88,VALID,0,VALID,104,VALID,321.679,VALID,21.9021,VALID,23,VALID,0,
2015-12-28, 15:41:04,VALID,917.902,VALID,0,VALID,104,VALID,350.258,VALID,21.9606,VALID,12,VALID,0,
2015-12-28, 15:42:04,VALID,917.921,VALID,0,VALID,104,VALID,375.185,VALID,22.0191,VALID,23,VALID,0,
2015-12-28, 15:43:04,VALID,917.921,VALID,0,VALID,104,VALID,391.838,VALID,22.2142,VALID,23,VALID,0,
2015-12-28, 15:44:04,VALID,917.943,VALID,0,VALID,104,VALID,256.247,VALID,22.4094,VALID,23,VALID,0,
2015-12-28, 15:45:04,VALID,917.924,VALID,0,VALID,104,VALID,188.667,VALID,22.5069,VALID,23,VALID,0,
2015-12-28, 15:46:04,VALID,917.929,VALID,0,VALID,104,VALID,224.659,VALID,22.624,VALID,22,VALID,0,
2015-12-28, 15:47:04,VALID,917.936,VALID,0,VALID,104,VALID,220.792,VALID,22.585,VALID,22,VALID,0,
2015-12-28, 15:48:04,VALID,917.94,VALID,0,VALID,103.015,VALID,259.041,VALID,22.5052,VALID,4,VALID,0,
2015-12-28, 15:49:04,VALID,917.953,VALID,0,VALID,102.649,VALID,297.505,VALID,22.5459,VALID,4,VALID,0,
2015-12-28, 15:50:04,VALID,917.952,VALID,0,VALID,101.917,VALID,451.897,VALID,22.5264,VALID,4,VALID,0,
2015-12-28, 15:51:04,VALID,917.936,VALID,0,VALID,101.491,VALID,468.121,VALID,22.6435,VALID,4,VALID,0,
2015-12-28, 15:52:04,VALID,917.982,VALID,0,VALID,97.4044,VALID,474.353,VALID,22.8191,VALID,317,VALID,0,
2015-12-28, 15:53:04,VALID,917.989,VALID,0,VALID,96.2228,VALID,488.535,VALID,23.1314,VALID,253,VALID,0,
2015-12-28, 15:54:04,VALID,918.035,VALID,0,VALID,100.248,VALID,495.733,VALID,23.4241,VALID,254,VALID,0,
2015-12-28, 15:55:04,VALID,918.011,VALID,0,VALID,100.858,VALID,498.634,VALID,23.6584,VALID,254,VALID,0,
2015-12-28, 15:56:04,VALID,918.008,VALID,0,VALID,101.3,VALID,501.965,VALID,23.9121,VALID,254,VALID,0,
2015-12-28, 15:57:04,VALID,918.006,VALID,0,VALID,100.477,VALID,446.633,VALID,24.1269,VALID,254,VALID,0,
2015-12-28, 15:58:04,VALID,918.024,VALID,0,VALID,99.8972,VALID,365.192,VALID,24.2812,VALID,250,VALID,0,
2015-12-28, 15:59:04,VALID,918.01,VALID,0,VALID,99.7676,VALID,416.979,VALID,24.4002,VALID,257,VALID,0,
2015-12-28, 16:00:04,VALID,917.961,VALID,0,VALID,101.308,VALID,423.748,VALID,24.535,VALID,260,VALID,0,
2015-12-28, 16:01:04,VALID,917.944,VALID,0,VALID,102.512,VALID,435.996,VALID,24.7711,VALID,260,VALID,0,
2015-12-28, 16:02:04,VALID,917.987,VALID,0,VALID,102.741,VALID,464.79,VALID,24.9469,VALID,260,VALID,0,
2015-12-28, 16:03:04,VALID,917.952,VALID,0,VALID,101.956,VALID,469.948,VALID,25.0621,VALID,260,VALID,0,
2015-12-28, 16:04:04,VALID,917.913,VALID,0,VALID,102.779,VALID,463.501,VALID,25.3003,VALID,260,VALID,0,
2015-12-28, 16:05:04,VALID,917.935,VALID,0,VALID,102.764,VALID,457.699,VALID,25.4546,VALID,269,VALID,0,
2015-12-28, 16:06:04,VALID,917.926,VALID,0,VALID,100.416,VALID,457.484,VALID,25.5132,VALID,276,VALID,0,
2015-12-28, 16:07:04,VALID,917.945,VALID,0,VALID,97.9228,VALID,453.939,VALID,25.5913,VALID,276,VALID,0,
2015-12-28, 16:08:04,VALID,917.928,VALID,0,VALID,100.202,VALID,448.782,VALID,25.7476,VALID,276,VALID,0,
2015-12-28, 16:09:04,VALID,917.951,VALID,0,VALID,90.3375,VALID,441.261,VALID,25.8257,VALID,276,VALID,0,
2015-12-28, 16:10:04,VALID,917.933,VALID,0,VALID,90.1164,VALID,436.426,VALID,25.8823,VALID,276,VALID,0,
2015-12-28, 16:11:04,VALID,917.943,VALID,0,VALID,92.5559,VALID,432.666,VALID,25.9995,VALID,276,VALID,0,
2015-12-28, 16:12:04,VALID,917.948,VALID,0,VALID,88.3706,VALID,429.55,VALID,26.0972,VALID,344,VALID,0,
2015-12-28, 16:13:04,VALID,917.969,VALID,0,VALID,93.9586,VALID,430.624,VALID,26.2359,VALID,344,VALID,0,
2015-12-28, 16:14:04,VALID,917.986,VALID,0,VALID,87.4482,VALID,434.062,VALID,26.314,VALID,345,VALID,0,
2015-12-28, 16:15:04,VALID,918.014,VALID,0,VALID,86.5563,VALID,434.062,VALID,26.3706,VALID,23,VALID,0,
2015-12-28, 16:16:04,VALID,918.01,VALID,0,VALID,82.1957,VALID,433.632,VALID,26.3922,VALID,30,VALID,0,
2015-12-28, 16:17:04,VALID,918,VALID,0,VALID,82.3253,VALID,434.599,VALID,26.3511,VALID,18,VALID,0,
2015-12-28, 16:18:04,VALID,918.027,VALID,0,VALID,80.8997,VALID,430.517,VALID,26.312,VALID,359,VALID,0,
2015-12-28, 16:19:04,VALID,918.032,VALID,0,VALID,79.3064,VALID,423.426,VALID,26.2359,VALID,30,VALID,0,
2015-12-28, 16:20:04,VALID,918.045,VALID,0,VALID,80.8006,VALID,418.376,VALID,26.1773,VALID,37,VALID,0.552344,
2015-12-28, 16:21:04,VALID,918.008,VALID,0,VALID,80.0154,VALID,414.078,VALID,26.1187,VALID,6,VALID,1.40664,
2015-12-28, 16:22:04,VALID,918.032,VALID,0,VALID,76.2494,VALID,409.566,VALID,25.9624,VALID,17,VALID,1.90547,
2015-12-28, 16:23:04,VALID,918.092,VALID,0,VALID,76.4476,VALID,406.45,VALID,25.8257,VALID,23,VALID,1.43633,
2015-12-28, 16:24:04,VALID,918.046,VALID,0,VALID,81.3419,VALID,400.326,VALID,25.8062,VALID,21,VALID,0.0859375,
2015-12-28, 16:25:04,VALID,918.019,VALID,0,VALID,78.1781,VALID,395.383,VALID,25.8648,VALID,23,VALID,1.50391,
2015-12-28, 16:26:04,VALID,918.028,VALID,0,VALID,77.3929,VALID,387.97,VALID,25.9409,VALID,359,VALID,1.00273,
2015-12-28, 16:27:04,VALID,918.024,VALID,0,VALID,74.7323,VALID,379.482,VALID,26.0386,VALID,15,VALID,0.78125,
2015-12-28, 16:28:04,VALID,918.043,VALID,0,VALID,76.0359,VALID,372.176,VALID,26.019,VALID,26,VALID,1.17461,
2015-12-28, 16:29:04,VALID,918.019,VALID,0,VALID,75.5328,VALID,367.556,VALID,26.019,VALID,3,VALID,1.23867,
2015-12-28, 16:30:04,VALID,918.068,VALID,0,VALID,76.0893,VALID,362.184,VALID,26.0796,VALID,36,VALID,1.13594,
2015-12-28, 16:31:04,VALID,918.052,VALID,0,VALID,74.0386,VALID,360.25,VALID,26.0581,VALID,37,VALID,1.07695,
2015-12-28, 16:32:04,VALID,918.092,VALID,0,VALID,74.9077,VALID,360.895,VALID,26.0972,VALID,27,VALID,1.39258,
2015-12-28, 16:33:04,VALID,918.135,VALID,0,VALID,75.4871,VALID,360.25,VALID,26.1948,VALID,19,VALID,0.460938,
2015-12-28, 16:34:04,VALID,918.126,VALID,0,VALID,76.844,VALID,359.391,VALID,26.273,VALID,29,VALID,0.121875,
2015-12-28, 16:35:04,VALID,918.097,VALID,0,VALID,74.5799,VALID,355.845,VALID,26.4097,VALID,11,VALID,0.711328,
2015-12-28, 16:36:04,VALID,918.105,VALID,0,VALID,75.0449,VALID,346.927,VALID,26.4488,VALID,20,VALID,2.04453,
2015-12-28, 16:37:04,VALID,918.123,VALID,0,VALID,75.3498,VALID,337.365,VALID,26.4488,VALID,10,VALID,0.646484,
2015-12-28, 16:38:04,VALID,918.099,VALID,0,VALID,74.9077,VALID,327.588,VALID,26.5269,VALID,33,VALID,0.404687,
2015-12-28, 16:39:04,VALID,918.137,VALID,0,VALID,74.3817,VALID,318.026,VALID,26.7027,VALID,26,VALID,0.455078,
2015-12-28, 16:40:04,VALID,918.123,VALID,0,VALID,73.7261,VALID,313.728,VALID,26.7418,VALID,330,VALID,0.644531,
2015-12-28, 16:41:04,VALID,918.144,VALID,0,VALID,73.2382,VALID,308.678,VALID,26.7418,VALID,338,VALID,0,
2015-12-28, 16:42:04,VALID,918.143,VALID,0,VALID,73.4974,VALID,310.29,VALID,26.8395,VALID,337,VALID,0,
2015-12-28, 16:43:04,VALID,918.149,VALID,0,VALID,72.3615,VALID,308.249,VALID,26.8785,VALID,19,VALID,0.126953,
2015-12-28, 16:44:04,VALID,918.163,VALID,0,VALID,73.5202,VALID,302.984,VALID,26.7984,VALID,34,VALID,0,
2015-12-28, 16:45:04,VALID,918.196,VALID,0,VALID,73.4364,VALID,300.728,VALID,26.9762,VALID,30,VALID,0,
2015-12-28, 16:46:04,VALID,918.227,VALID,0,VALID,73.7718,VALID,300.728,VALID,27.1521,VALID,27,VALID,0,
2015-12-28, 16:47:04,VALID,918.225,VALID,0,VALID,73.8785,VALID,295.893,VALID,27.2302,VALID,357,VALID,0,
2015-12-28, 16:48:04,VALID,918.257,VALID,0,VALID,71.2408,VALID,288.587,VALID,27.1716,VALID,340,VALID,0.109375,
2015-12-28, 16:49:04,VALID,918.232,VALID,0,VALID,73.8557,VALID,283.537,VALID,27.0935,VALID,27,VALID,0.00742187,
2015-12-28, 16:50:04,VALID,918.25,VALID,0,VALID,73.9166,VALID,276.661,VALID,27.113,VALID,7,VALID,0,
2015-12-28, 16:51:04,VALID,918.266,VALID,0,VALID,75.9978,VALID,268.281,VALID,27.0348,VALID,13,VALID,0.392188,
2015-12-28, 16:52:04,VALID,918.264,VALID,0,VALID,73.8938,VALID,273.545,VALID,26.9762,VALID,341,VALID,0,
2015-12-28, 16:53:04,VALID,918.262,VALID,0,VALID,75.7691,VALID,272.041,VALID,26.9351,VALID,341,VALID,0,
2015-12-28, 16:54:04,VALID,918.253,VALID,0,VALID,75.2431,VALID,269.892,VALID,27.0328,VALID,343,VALID,0,
2015-12-28, 16:55:04,VALID,918.267,VALID,0,VALID,72.9713,VALID,265.595,VALID,27.1911,VALID,289,VALID,0,
2015-12-28, 16:56:04,VALID,918.225,VALID,0,VALID,71.5458,VALID,261.619,VALID,27.3475,VALID,288,VALID,0,
2015-12-28, 16:57:04,VALID,918.212,VALID,0,VALID,72.9485,VALID,250.875,VALID,27.4626,VALID,288,VALID,0,
2015-12-28, 16:58:04,VALID,918.163,VALID,0,VALID,73.3068,VALID,251.627,VALID,27.6971,VALID,289,VALID,0,
2015-12-28, 16:59:04,VALID,918.107,VALID,0,VALID,71.8354,VALID,251.197,VALID,27.912,VALID,295,VALID,0,
2015-12-28, 17:00:04,VALID,918.116,VALID,0,VALID,70.6614,VALID,250.983,VALID,28.1465,VALID,311,VALID,0,
2015-12-28, 17:01:04,VALID,918.064,VALID,0,VALID,69.4188,VALID,248.511,VALID,28.1465,VALID,4,VALID,0.516797,
2015-12-28, 17:02:04,VALID,918.059,VALID,0,VALID,69.2054,VALID,244.536,VALID,27.7557,VALID,348,VALID,0.135156,
2015-12-28, 17:03:04,VALID,918.079,VALID,0,VALID,69.0377,VALID,242.817,VALID,27.5819,VALID,347,VALID,0.440234,
2015-12-28, 17:04:04,VALID,918.111,VALID,0,VALID,70.2574,VALID,226.056,VALID,27.4821,VALID,345,VALID,0,
2015-12-28, 17:05:04,VALID,918.102,VALID,0,VALID,72.3538,VALID,207.254,VALID,27.4842,VALID,345,VALID,0,
2015-12-28, 17:06:04,VALID,918.165,VALID,0,VALID,74.2521,VALID,208.651,VALID,27.4061,VALID,356,VALID,0,
2015-12-28, 17:07:04,VALID,918.212,VALID,0,VALID,73.322,VALID,178.46,VALID,27.2086,VALID,318,VALID,0,
2015-12-28, 17:08:04,VALID,918.233,VALID,0,VALID,74.6866,VALID,153.104,VALID,27.0914,VALID,319,VALID,0,
2015-12-28, 17:09:04,VALID,918.288,VALID,0,VALID,77.6674,VALID,137.525,VALID,27.0935,VALID,343,VALID,0,
2015-12-28, 17:10:04,VALID,918.267,VALID,0,VALID,78.0257,VALID,129.359,VALID,27.113,VALID,346,VALID,0,
2015-12-28, 17:11:04,VALID,918.297,VALID,0,VALID,76.3485,VALID,122.913,VALID,27.0914,VALID,346,VALID,0,
2015-12-28, 17:12:04,VALID,918.296,VALID,0,VALID,75.5862,VALID,114.317,VALID,27.0935,VALID,345,VALID,0,
2015-12-28, 17:13:04,VALID,918.258,VALID,0,VALID,73.322,VALID,108.193,VALID,26.9958,VALID,333,VALID,0,
2015-12-28, 17:14:04,VALID,918.233,VALID,0,VALID,74.031,VALID,105.722,VALID,26.857,VALID,293,VALID,0,
